• In Moldova, Republic
  • List of Countries
  • For 7 days
  • Water Temperature
  • Satellite Maps
  • Weather Map
  • Weather Widgets
  • user-avatar
    Login

    Hourly Weather Klagenfurt

    Today, 23 June, Friday

    Time Temperature Precipitation Wind Pressure Humidity
    00:00 +18°C° 0 mm 1 mps 691 mmHg 88%
    01:00 +18°C° 0 mm 1 mps 690 mmHg 90%
    02:00 +18°C° 0 mm 1 mps 690 mmHg 90%
    03:00 +16°C° 0 mm 1 mps 690 mmHg 90%
    04:00 +16°C° 0 mm 1 mps 690 mmHg 90%
    05:00 +19°C° 0 mm 1 mps 690 mmHg 84%
    06:00 +21°C° 0 mm 1 mps 691 mmHg 79%
    07:00 +23°C° 0 mm 1 mps 692 mmHg 73%
    08:00 +25°C° 0.3 mm 2 mps 692 mmHg 65%
    09:00 +27°C° 0.3 mm 2 mps 692 mmHg 57%
    10:00 +29°C° 0.3 mm 2 mps 693 mmHg 49%
    11:00 +29°C° 0 mm 2 mps 693 mmHg 47%
    12:00 +30°C° 0 mm 2 mps 693 mmHg 44%
    13:00 +31°C° 0 mm 2 mps 693 mmHg 41%
    14:00 +30°C° 0.1 mm 2 mps 693 mmHg 44%
    15:00 +30°C° 0.1 mm 2 mps 692 mmHg 47%
    16:00 +29°C° 0.1 mm 2 mps 692 mmHg 50%
    17:00 +27°C° 0 mm 2 mps 692 mmHg 59%
    18:00 +26°C° 0 mm 1 mps 692 mmHg 68%
    19:00 +24°C° 0 mm 1 mps 691 mmHg 76%
    20:00 +22°C° 0 mm 1 mps 691 mmHg 81%
    21:00 +20°C° 0 mm 1 mps 691 mmHg 86%
    22:00 +18°C° 0 mm 1 mps 691 mmHg 90%
    23:00 +18°C° 0 mm 1 mps 691 mmHg 90%

    Tomorrow, 24 June, Saturday

    Time Temperature Precipitation Wind Pressure Humidity
    00:00 +16°C° 0 mm 1 mps 691 mmHg 90%
    01:00 +15°C° 0 mm 1 mps 691 mmHg 90%
    02:00 +15°C° 0.1 mm 1 mps 691 mmHg 91%
    03:00 +15°C° 0.1 mm 1 mps 691 mmHg 91%
    04:00 +14°C° 0.1 mm 1 mps 691 mmHg 92%
    05:00 +16°C° 0 mm 1 mps 692 mmHg 86%
    06:00 +20°C° 0 mm 1 mps 692 mmHg 80%
    07:00 +22°C° 0 mm 1 mps 693 mmHg 74%
    08:00 +23°C° 0 mm 1 mps 693 mmHg 69%
    09:00 +25°C° 0 mm 1 mps 693 mmHg 64%
    10:00 +26°C° 0 mm 1 mps 693 mmHg 59%
    11:00 +27°C° 0.2 mm 1 mps 693 mmHg 57%
    12:00 +28°C° 0.2 mm 1 mps 693 mmHg 56%
    13:00 +28°C° 0.2 mm 2 mps 693 mmHg 54%
    14:00 +28°C° 0.5 mm 2 mps 693 mmHg 57%
    15:00 +28°C° 0.5 mm 2 mps 692 mmHg 59%
    16:00 +28°C° 0.5 mm 2 mps 692 mmHg 61%
    17:00 +26°C° 0.4 mm 1 mps 692 mmHg 69%
    18:00 +25°C° 0.4 mm 1 mps 691 mmHg 76%
    19:00 +24°C° 0.4 mm 1 mps 691 mmHg 84%
    20:00 +22°C° 0.7 mm 1 mps 691 mmHg 87%
    21:00 +20°C° 0.7 mm 1 mps 691 mmHg 91%
    22:00 +18°C° 0.7 mm 1 mps 690 mmHg 94%
    23:00 +18°C° 0.4 mm 1 mps 690 mmHg 94%

    Day after tomorrow, 25 June, Sunday

    Time Temperature Precipitation Wind Pressure Humidity
    00:00 +15°C° 0.4 mm 0 mps 690 mmHg 94%
    01:00 +15°C° 0.4 mm 0 mps 690 mmHg 94%
    02:00 +15°C° 0.3 mm 0 mps 689 mmHg 94%
    03:00 +15°C° 0.3 mm 0 mps 689 mmHg 94%
    04:00 +15°C° 0.3 mm 0 mps 689 mmHg 94%
    05:00 +16°C° 1.4 mm 0 mps 689 mmHg 91%
    06:00 +18°C° 1.4 mm 0 mps 690 mmHg 88%
    07:00 +19°C° 1.4 mm 0 mps 690 mmHg 86%
    08:00 +22°C° 2.1 mm 1 mps 690 mmHg 83%
    09:00 +23°C° 2.1 mm 1 mps 690 mmHg 80%
    10:00 +24°C° 2.1 mm 1 mps 691 mmHg 77%
    11:00 +23°C° 4.5 mm 1 mps 690 mmHg 82%
    12:00 +21°C° 4.5 mm 1 mps 690 mmHg 86%
    13:00 +20°C° 4.5 mm 1 mps 690 mmHg 90%
    14:00 +20°C° 2.7 mm 1 mps 690 mmHg 91%
    15:00 +19°C° 2.7 mm 1 mps 690 mmHg 92%
    16:00 +18°C° 2.7 mm 1 mps 690 mmHg 93%
    17:00 +18°C° 0.2 mm 1 mps 690 mmHg 92%
    18:00 +18°C° 0.2 mm 1 mps 690 mmHg 92%
    19:00 +18°C° 0.2 mm 1 mps 690 mmHg 92%
    20:00 +15°C° 0 mm 1 mps 690 mmHg 93%
    21:00 +14°C° 0 mm 1 mps 690 mmHg 94%
    22:00 +12°C° 0 mm 1 mps 690 mmHg 94%
    23:00 +12°C° 0 mm 1 mps 690 mmHg 94%

    26 June, Monday

    Time Temperature Precipitation Wind Pressure Humidity
    00:00 +11°C° 0 mm 1 mps 690 mmHg 93%
    01:00 +11°C° 0 mm 1 mps 690 mmHg 93%
    02:00 +11°C° 0 mm 1 mps 689 mmHg 92%
    03:00 +11°C° 0 mm 1 mps 689 mmHg 92%
    04:00 +10°C° 0 mm 1 mps 689 mmHg 92%
    05:00 +13°C° 0 mm 1 mps 690 mmHg 87%
    06:00 +15°C° 0 mm 1 mps 691 mmHg 83%
    07:00 +18°C° 0 mm 1 mps 691 mmHg 78%
    08:00 +20°C° 0 mm 1 mps 692 mmHg 68%
    09:00 +22°C° 0 mm 1 mps 692 mmHg 57%
    10:00 +24°C° 0 mm 2 mps 692 mmHg 46%
    11:00 +25°C° 0 mm 2 mps 692 mmHg 45%
    12:00 +26°C° 0 mm 2 mps 692 mmHg 44%
    13:00 +27°C° 0 mm 2 mps 692 mmHg 42%
    14:00 +26°C° 0 mm 2 mps 692 mmHg 44%
    15:00 +26°C° 0 mm 2 mps 691 mmHg 46%
    16:00 +26°C° 0 mm 2 mps 691 mmHg 48%
    17:00 +25°C° 0 mm 2 mps 691 mmHg 58%
    18:00 +23°C° 0 mm 1 mps 690 mmHg 68%
    19:00 +21°C° 0 mm 1 mps 690 mmHg 78%
    20:00 +19°C° 0 mm 1 mps 690 mmHg 83%
    21:00 +16°C° 0 mm 1 mps 690 mmHg 88%
    22:00 +14°C° 0 mm 1 mps 689 mmHg 94%
    23:00 +14°C° 0 mm 1 mps 689 mmHg 94%

    27 June, Tuesday

    Time Temperature Precipitation Wind Pressure Humidity
    00:00 +13°C° 0 mm 1 mps 689 mmHg 95%
    01:00 +13°C° 0 mm 1 mps 688 mmHg 95%
    02:00 +13°C° 0 mm 1 mps 688 mmHg 95%
    03:00 +13°C° 0 mm 1 mps 688 mmHg 95%
    04:00 +12°C° 0 mm 0 mps 688 mmHg 95%
    05:00 +15°C° 0 mm 1 mps 688 mmHg 90%
    06:00 +18°C° 0 mm 1 mps 689 mmHg 84%
    07:00 +21°C° 0 mm 1 mps 689 mmHg 78%
    08:00 +23°C° 0 mm 1 mps 689 mmHg 69%
    09:00 +24°C° 0 mm 2 mps 690 mmHg 60%
    10:00 +26°C° 0 mm 2 mps 690 mmHg 51%
    11:00 +27°C° 0 mm 2 mps 690 mmHg 49%
    12:00 +28°C° 0 mm 3 mps 690 mmHg 47%
    13:00 +29°C° 0 mm 3 mps 690 mmHg 44%
    14:00 +29°C° 0 mm 3 mps 689 mmHg 45%
    15:00 +29°C° 0 mm 3 mps 689 mmHg 46%
    16:00 +28°C° 0 mm 4 mps 689 mmHg 48%
    17:00 +27°C° 0 mm 3 mps 688 mmHg 57%
    18:00 +25°C° 0 mm 2 mps 688 mmHg 66%
    19:00 +23°C° 0 mm 1 mps 687 mmHg 76%
    20:00 +21°C° 0 mm 1 mps 687 mmHg 80%
    21:00 +20°C° 0 mm 1 mps 687 mmHg 84%
    22:00 +17°C° 0 mm 2 mps 687 mmHg 89%
    23:00 +18°C° 0 mm 1 mps 687 mmHg 89%

    28 June, Wednesday

    Time Temperature Precipitation Wind Pressure Humidity
    00:00 +16°C° 0 mm 1 mps 686 mmHg 89%
    01:00 +16°C° 0 mm 1 mps 686 mmHg 90%
    02:00 +16°C° 0 mm 1 mps 685 mmHg 90%
    03:00 +15°C° 0 mm 1 mps 685 mmHg 90%
    04:00 +15°C° 0 mm 1 mps 685 mmHg 90%
    05:00 +18°C° 0 mm 1 mps 685 mmHg 86%
    06:00 +19°C° 0 mm 2 mps 686 mmHg 82%
    07:00 +20°C° 0 mm 2 mps 686 mmHg 78%
    08:00 +23°C° 0 mm 2 mps 686 mmHg 71%
    09:00 +25°C° 0 mm 3 mps 686 mmHg 63%
    10:00 +27°C° 0 mm 3 mps 687 mmHg 55%
    11:00 +27°C° 0.5 mm 4 mps 687 mmHg 58%
    12:00 +27°C° 0.5 mm 4 mps 687 mmHg 60%
    13:00 +26°C° 0.5 mm 5 mps 686 mmHg 62%
    14:00 +27°C° 0.1 mm 4 mps 686 mmHg 57%
    15:00 +28°C° 0.1 mm 4 mps 686 mmHg 52%
    16:00 +28°C° 0.1 mm 4 mps 685 mmHg 47%
    17:00 +26°C° 1.1 mm 3 mps 685 mmHg 58%
    18:00 +24°C° 1.1 mm 2 mps 684 mmHg 69%
    19:00 +21°C° 1.1 mm 2 mps 684 mmHg 80%
    20:00 +19°C° 0.9 mm 2 mps 684 mmHg 83%
    21:00 +19°C° 0.9 mm 1 mps 683 mmHg 87%
    22:00 +18°C° 0.9 mm 1 mps 683 mmHg 90%
    23:00 +16°C° 0.6 mm 1 mps 682 mmHg 91%
    Show more